FW0527 Weather Reports


time (UTC)temp
C
wind
direction
speed
KPH
gust
KPH
rain 1hr
cm
rain 24hr
cm
rain mn
cm
humidity
%
barometer
mb
20260506024522 7 304 0.0 6.4 0.00 0.97 0.94 85 1016.1
20260506023021 7 302 0.0 0.0 0.00 0.97 0.94 84 1015.8
20260506021519 7 315 0.0 0.0 0.00 0.97 0.94 83 1015.7
20260506020019 7 309 0.0 0.0 0.00 0.97 0.94 82 1015.6
20260506014518 7 312 0.0 0.0 0.00 0.97 0.94 81 1015.6
20260506013017 7 306 0.0 16.1 0.00 0.97 0.94 80 1015.2
20260506011516 8 305 0.0 9.7 0.00 0.97 0.94 80 1015.2
20260506010016 8 316 0.0 6.4 0.00 0.97 0.94 80 1014.9
20260506004523 8 346 0.0 12.9 0.00 0.97 0.94 77 1014.8
20260506003015 8 259 0.0 6.4 0.00 0.97 0.94 79 1014.8
20260506001514 8 311 0.0 6.4 0.00 0.97 0.94 78 1014.6
20260506000011 8 306 0.0 17.7 0.00 0.97 0.94 75 1014.6
20260505234510 9 252 0.0 16.1 0.00 0.97 0.94 75 1014.6
20260505233008 9 281 0.0 16.1 0.00 0.97 0.94 79 1014.4
20260505231506 9 285 0.0 12.9 0.00 0.97 0.94 82 1014.6
20260505230004 8 253 0.0 11.3 0.00 0.97 0.94 84 1014.7
20260505224503 8 322 0.0 3.2 0.00 0.97 0.94 84 1014.8
20260505223002 9 254 0.0 17.7 0.00 0.97 0.94 87 1014.8
20260505221557 9 242 0.0 20.9 0.00 0.97 0.94 89 1014.8
20260505220053 9 336 4.8 16.1 0.00 0.97 0.94 93 1014.9
20260505214554 8 253 4.8 19.3 0.00 0.97 0.94 95 1015.1
20260505213047 8 315 6.4 24.1 0.00 0.97 0.94 95 1015.1
20260505211546 8 265 0.0 16.1 0.00 0.97 0.94 95 1015.2
20260505210044 8 295 6.4 19.3 0.00 0.97 0.94 96 1015.3
20260505204546 7 294 1.6 11.3 0.00 0.97 0.94 95 1015.2
20260505203042 7 264 0.0 17.7 0.00 0.97 0.94 96 1015.2
20260505201539 7 292 1.6 14.5 0.00 0.97 0.94 95 1015.3
20260505200044 7 305 0.0 16.1 0.00 0.97 0.94 95 1015.2
20260505194539 7 321 0.0 14.5 0.00 0.97 0.94 95 1015.2
20260505193037 6 296 3.2 16.1 0.00 0.97 0.94 95 1015.3
20260505191537 6 290 1.6 14.5 0.00 0.97 0.94 95 1015.5
20260505190039 6 302 1.6 16.1 0.00 0.97 0.94 95 1015.5
20260505184534 7 323 3.2 20.9 0.00 0.97 0.94 95 1015.2
20260505183038 7 310 3.2 19.3 0.03 0.97 0.94 95 1015.2
20260505181531 7 297 0.0 16.1 0.05 0.97 0.94 95 1015.2
20260505180032 6 302 1.6 22.5 0.05 0.97 0.94 95 1015.0
20260505174538 6 284 0.0 9.7 0.08 0.97 0.94 95 1014.9
20260505173028 6 291 1.6 11.3 0.05 0.94 0.91 95 1014.8
20260505171527 6 299 3.2 14.5 0.03 0.91 0.89 95 1014.7
20260505170025 6 317 1.6 16.1 0.03 0.91 0.89 95 1014.4
20260505164522 6 278 0.0 14.5 0.05 0.89 0.86 95 1014.4
20260505163020 6 238 1.6 9.7 0.10 0.89 0.86 95 1014.3
20260505161519 6 311 1.6 11.3 0.10 0.89 0.86 94 1014.1
20260505153018 6 311 3.2 14.5 0.00 0.79 0.76 94 1014.0
20260505151517 6 348 0.0 8.0 0.03 0.79 0.76 95 1013.9
20260505124502 6 280 3.2 11.3 0.18 0.53 0.51 94 1012.6
20260505123000 6 277 1.6 17.7 0.10 0.46 0.43 94 1012.4
20260505121600 6 323 3.2 20.9 0.08 0.41 0.38 93 1012.4
20260505120121 6 288 0.0 8.0 0.10 0.41 0.38 94 1012.3
20260505114601 6 288 1.6 9.7 0.08 0.36 0.33 93 1012.4
20260505113104 6 248 0.0 9.7 0.08 0.36 0.33 93 1012.6
20260505111546 6 202 1.6 22.5 0.08 0.33 0.30 93 1012.5
20260505101539 6 224 0.0 4.8 0.18 0.25 0.23 93 1012.8
20260505100036 5 315 0.0 6.4 0.15 0.20 0.18 92 1012.9
20260505094536 5 317 0.0 6.4 0.13 0.15 0.13 92 1013.0
20260505093033 5 229 0.0 1.6 0.08 0.10 0.08 92 1013.1
20260505091532 5 228 0.0 0.0 0.05 0.08 0.05 92 1013.1
20260505090036 5 227 0.0 4.8 0.03 0.05 0.03 91 1013.2
20260505084529 5 240 0.0 3.2 0.00 0.03 0.00 91 1013.2
20260505083027 6 261 0.0 4.8 0.00 0.03 0.00 92 1013.3
20260505081539 6 309 0.0 0.0 0.00 0.03 0.00 92 1013.7
20260505080024 6 309 0.0 1.6 0.00 0.03 0.00 92 1014.0
20260505074524 6 309 0.0 0.0 0.00 0.03 0.00 92 1014.0
20260505073027 6 310 0.0 9.7 0.00 0.03 0.00 91 1014.0
20260505071540 6 300 0.0 6.4 0.00 0.03 0.00 91 1014.1
20260505070019 6 315 0.0 4.8 0.00 0.03 0.00 91 1014.1
20260505064523 6 260 0.0 4.8 0.03 0.03 0.03 91 1014.1
20260505063018 6 258 0.0 8.0 0.03 0.03 0.03 91 1014.3
20260505061517 6 271 0.0 8.0 0.03 0.03 0.03 91 1014.3
20260505060017 6 297 0.0 11.3 0.03 0.03 0.03 91 1014.3
20260505054520 6 315 0.0 12.9 0.00 0.00 0.00 90 1014.5
20260505053023 6 306 1.6 9.7 0.00 0.00 0.00 90 1014.7
20260505051525 6 273 0.0 12.9 0.00 0.00 0.00 90 1014.9
20260505041515 7 270 0.0 8.0 0.00 0.00 0.00 88 1014.7
20260505040015 7 333 0.0 9.7 0.00 0.00 0.00 88 1014.7
20260505034511 7 316 1.6 17.7 0.00 0.00 0.00 87 1014.4
20260505033011 7 302 1.6 9.7 0.00 0.00 0.00 86 1014.3
20260505031508 7 262 0.0 16.1 0.00 0.00 0.00 85 1014.3
20260505030021 7 286 1.6 12.9 0.00 0.00 0.00 84 1014.1